Regional Weather Roundup
Issued by NWS

Home | Current Version | Previous Version | Text Only | Print | Product List | Glossary Off
Versions: 1 2 3 4 5 6 7 8 9 10 11 12 13 14 15 16 17 18 19 20 21 22 23 24 25 26 27 28 29 30 31 32 33 34 35 36 37 38 39 40 41 42 43 44 45 46 47 48 49 50

000
ASUS43 KFSD 301010
RWRSD

WEATHER ROUNDUP FOR SOUTH DAKOTA
NATIONAL WEATHER SERVICE SIOUX FALLS SD
500 AM CDT MON MAY 30 2016

NOTE: "FAIR" INDICATES FEW OR NO CLOUDS BELOW 12,000 FEET WITH NO
SIGNIFICANT WEATHER AND/OR OBSTRUCTIONS TO VISIBILITY.


SDZ001>005-009-010-012>017-301100-
NORTHWEST AND NORTH CENTRAL SOUTH DAKOTA

CITY           SKY/WX    TMP DP  RH WIND       PRES   REMARKS
BUFFALO          N/A     53  48  83 SE8       29.85F
FAITH            N/A     56  50  80 SE13      29.91F
MOBRIDGE       CLEAR     57  51  80 SE8       29.90F
$$

SDZ012>016-024>037-041>051-057-063-072>074-301100-
SOUTHWEST AND SOUTH CENTRAL SOUTH DAKOTA

CITY           SKY/WX    TMP DP  RH WIND       PRES   REMARKS
RAPID CTY ARPT CLOUDY    51  49  92 NW5       29.91F
PIERRE         CLEAR     60  55  83 SE12      29.93R
CUSTER         CLOUDY    46  40  79 N5        30.01F
ELLSWORTH AFB  CLOUDY    52  50  93 W7        29.90F
PHILIP         CLOUDY    52  51  97 CALM      29.91R
PINE RIDGE     CLOUDY    59  49  69 SW12      29.95F
WINNER         PTSUNNY   61  57  87 E10       29.97R
$$

SDZ004>011-016>023-039-040-301100-
NORTHEAST SOUTH DAKOTA

CITY           SKY/WX    TMP DP  RH WIND       PRES   REMARKS
ABERDEEN       CLEAR     53  50  89 SE6       29.96S
WATERTOWN      CLOUDY    55  50  83 S7        30.00R
BROOKINGS      LGT RAIN  60  54  80 S8        30.02S
SISSETON         N/A     51  45  79 S5        29.95S
$$

SDZ017-020-022-023-036>040-048>070-301100-
SOUTHEAST SOUTH DAKOTA

CITY           SKY/WX    TMP DP  RH WIND       PRES   REMARKS
SIOUX FALLS    CLOUDY    63  55  75 E7        30.01F
HURON          RAIN      61  56  83 SW26G35   29.99S
CHAMBERLAIN    LGT RAIN  63  60  88 SE12      29.98S
MITCHELL       CLOUDY    62  57  83 E3        29.99F
YANKTON        CLOUDY    63  55  77 SE6       29.96R
$$

ABBREVIATIONS USED IN REMARKS
   TC - TEMPERATURE IN CELSIUS
  WCI - WIND CHILL INDEX
   HX - HEAT INDEX
  VSB - VISIBILITY




USA.gov is the U.S. government's official web portal to all federal, state and local government web resources and services.